Satellite: CO-66
Catalog number: 32791
Epoch time:      11180.71700236
Element set:    0020
Inclination:      097.8476 deg
RA of node:       244.2373 deg
Eccentricity:    0.0016953
Arg of perigee:   131.4383 deg
Mean anomaly:     228.8270 deg
Mean motion:   14.82151842 rev/day
Decay rate:       1.12e-06 rev/day^2
Epoch rev:           17136
Checksum:              283

Satellite: RS-30
Catalog number: 32953
Epoch time:      11173.45977334
Element set:     841
Inclination:      082.5007 deg
RA of node:       159.4452 deg
Eccentricity:    0.0019749
Arg of perigee:   019.7868 deg
Mean anomaly:     340.3973 deg
Mean motion:   12.43013814 rev/day
Decay rate:        1.0e-07 rev/day^2
Epoch rev:           13974
Checksum:              306

Satellite: TACSAT-3
Catalog number: 35001
Epoch time:      11173.85916380
Element set:     624
Inclination:      040.4530 deg
RA of node:       138.2964 deg
Eccentricity:    0.0023122
Arg of perigee:   255.4349 deg
Mean anomaly:     104.3906 deg
Mean motion:   15.49233901 rev/day
Decay rate:     1.2546e-04 rev/day^2
Epoch rev:           11796
Checksum:              278

Satellite: PHARMSAT
Catalog number: 35002
Epoch time:      11180.92021280
Element set:    0586
Inclination:      040.4690 deg
RA of node:       093.2204 deg
Eccentricity:    0.0025650
Arg of perigee:   311.4500 deg
Mean anomaly:     048.4073 deg
Mean motion:   15.48946266 rev/day
Decay rate:      9.739e-05 rev/day^2
Epoch rev:           11908
Checksum:              271

Satellite: HAWKSAT1
Catalog number: 35003
Epoch time:      11181.85997355
Element set:     672
Inclination:      040.4593 deg
RA of node:       056.3210 deg
Eccentricity:    0.0020538
Arg of perigee:   334.5175 deg
Mean anomaly:     025.4316 deg
Mean motion:   15.67447219 rev/day
Decay rate:     4.9667e-04 rev/day^2
Epoch rev:           11957
Checksum:              307

Satellite: CP6
Catalog number: 35004
Epoch time:      11180.92821697
Element set:    0672
Inclination:      040.4524 deg
RA of node:       052.4083 deg
Eccentricity:    0.0021225
Arg of perigee:   335.2459 deg
Mean anomaly:     024.7283 deg
Mean motion:   15.75497843 rev/day
Decay rate:     9.9682e-04 rev/day^2
Epoch rev:           11952
Checksum:              310

Satellite: METEOR-M
Catalog number: 35865
Epoch time:      11173.78103354
Element set:     480
Inclination:      098.7057 deg
RA of node:       228.8375 deg
Eccentricity:    0.0003339
Arg of perigee:   026.8609 deg
Mean anomaly:     333.2689 deg
Mean motion:   14.21839888 rev/day
Decay rate:       1.76e-06 rev/day^2
Epoch rev:            9138
Checksum:              334

Satellite: RS-38
Catalog number: 35869
Epoch time:      11180.88703899
Element set:    0496
Inclination:      098.7022 deg
RA of node:       235.8860 deg
Eccentricity:    0.0004889
Arg of perigee:   006.3205 deg
Mean anomaly:     353.8024 deg
Mean motion:   14.22015250 rev/day
Decay rate:       1.77e-06 rev/day^2
Epoch rev:           09240
Checksum:              316

/EX


_______________________________________________
Via the Keps mailing list courtesy of AMSAT-NA
http://amsat.org/mailman/listinfo/keps

--- ViaMAIL!/WC v1.60d
 * Origin: Chowdanet (401-724-4410) telnet://chowdanet.com  (1:323/120)